When you browse on this site, cookies collect data to enhance your experience and personalize the content and advertising you see.
Visit our Privacy Policy to learn more. By continuing to use the site, you agree to this use of cookies and data.
  • In Portugal
  • List of Countries
  • For 7 days
  • Water Temperature
  • Satellite Maps
  • Weather Map
  • Weather Widgets
  • user-avatar
    Login

    Hourly Weather Fier

    Today, 13 December, Thursday

    Time Temperature Precipitation Wind Pressure Humidity
    00:00 +4°C° 0 mm 3 mps 764 mmHg 41%
    01:00 +4°C° 0 mm 3 mps 764 mmHg 41%
    02:00 +4°C° 0 mm 3 mps 763 mmHg 41%
    03:00 +4°C° 0 mm 3 mps 763 mmHg 41%
    04:00 +5°C° 0 mm 4 mps 763 mmHg 41%
    05:00 +5°C° 0.1 mm 4 mps 762 mmHg 43%
    06:00 +5°C° 0.1 mm 4 mps 762 mmHg 44%
    07:00 +5°C° 0.1 mm 3 mps 762 mmHg 45%
    08:00 +5°C° 0.1 mm 4 mps 762 mmHg 49%
    09:00 +6°C° 0.1 mm 4 mps 762 mmHg 53%
    10:00 +6°C° 0.1 mm 4 mps 762 mmHg 57%
    11:00 +7°C° 0 mm 4 mps 761 mmHg 59%
    12:00 +7°C° 0 mm 4 mps 761 mmHg 62%
    13:00 +7°C° 0 mm 4 mps 761 mmHg 65%
    14:00 +7°C° 0 mm 4 mps 760 mmHg 67%
    15:00 +7°C° 0 mm 4 mps 760 mmHg 70%
    16:00 +6°C° 0 mm 4 mps 760 mmHg 73%
    17:00 +6°C° 0 mm 4 mps 760 mmHg 74%
    18:00 +5°C° 0 mm 5 mps 760 mmHg 75%
    19:00 +5°C° 0 mm 5 mps 760 mmHg 76%
    20:00 +5°C° 0.2 mm 5 mps 760 mmHg 77%
    21:00 +5°C° 0.2 mm 5 mps 760 mmHg 77%
    22:00 +6°C° 0.2 mm 5 mps 760 mmHg 77%
    23:00 +6°C° 0.3 mm 5 mps 760 mmHg 78%

    Tomorrow, 14 December, Friday

    Time Temperature Precipitation Wind Pressure Humidity
    00:00 +6°C° 0.3 mm 5 mps 760 mmHg 79%
    01:00 +6°C° 0.3 mm 5 mps 760 mmHg 79%
    02:00 +7°C° 0.3 mm 5 mps 760 mmHg 81%
    03:00 +7°C° 0.3 mm 5 mps 759 mmHg 82%
    04:00 +7°C° 0.3 mm 5 mps 759 mmHg 83%
    05:00 +7°C° 0.3 mm 5 mps 759 mmHg 84%
    06:00 +8°C° 0.3 mm 5 mps 759 mmHg 85%
    07:00 +8°C° 0.3 mm 5 mps 759 mmHg 86%
    08:00 +9°C° 0.1 mm 5 mps 759 mmHg 83%
    09:00 +11°C° 0.1 mm 6 mps 759 mmHg 80%
    10:00 +13°C° 0.1 mm 6 mps 759 mmHg 77%
    11:00 +14°C° 0.1 mm 6 mps 759 mmHg 75%
    12:00 +15°C° 0.1 mm 6 mps 759 mmHg 74%
    13:00 +16°C° 0.1 mm 6 mps 758 mmHg 72%
    14:00 +15°C° 0.2 mm 6 mps 758 mmHg 75%
    15:00 +14°C° 0.2 mm 6 mps 758 mmHg 79%
    16:00 +13°C° 0.2 mm 6 mps 758 mmHg 82%
    17:00 +11°C° 0.1 mm 6 mps 758 mmHg 83%
    18:00 +10°C° 0.1 mm 6 mps 759 mmHg 83%
    19:00 +10°C° 0.1 mm 6 mps 759 mmHg 83%
    20:00 +9°C° 0.2 mm 6 mps 759 mmHg 82%
    21:00 +9°C° 0.2 mm 6 mps 759 mmHg 81%
    22:00 +9°C° 0.2 mm 6 mps 759 mmHg 80%
    23:00 +9°C° 0 mm 6 mps 759 mmHg 79%

    Day after tomorrow, 15 December, Saturday

    Time Temperature Precipitation Wind Pressure Humidity
    00:00 +9°C° 0 mm 5 mps 759 mmHg 79%
    01:00 +9°C° 0 mm 5 mps 759 mmHg 78%
    02:00 +9°C° 0 mm 5 mps 758 mmHg 78%
    03:00 +9°C° 0 mm 5 mps 758 mmHg 78%
    04:00 +9°C° 0 mm 5 mps 758 mmHg 77%
    05:00 +9°C° 0.1 mm 6 mps 758 mmHg 78%
    06:00 +9°C° 0.1 mm 6 mps 758 mmHg 79%
    07:00 +9°C° 0.1 mm 6 mps 758 mmHg 79%
    08:00 +10°C° 0.3 mm 6 mps 758 mmHg 78%
    09:00 +11°C° 0.3 mm 6 mps 758 mmHg 76%
    10:00 +13°C° 0.3 mm 6 mps 759 mmHg 75%
    11:00 +13°C° 0.6 mm 5 mps 758 mmHg 73%
    12:00 +14°C° 0.6 mm 5 mps 758 mmHg 71%
    13:00 +14°C° 0.6 mm 5 mps 758 mmHg 70%
    14:00 +14°C° 0.6 mm 5 mps 758 mmHg 73%
    15:00 +13°C° 0.6 mm 4 mps 758 mmHg 77%
    16:00 +12°C° 0.6 mm 4 mps 758 mmHg 80%
    17:00 +12°C° 0.8 mm 4 mps 758 mmHg 80%
    18:00 +12°C° 0.8 mm 4 mps 758 mmHg 81%
    19:00 +11°C° 0.8 mm 4 mps 758 mmHg 81%
    20:00 +11°C° 1.9 mm 4 mps 758 mmHg 84%
    21:00 +11°C° 1.9 mm 4 mps 759 mmHg 87%
    22:00 +11°C° 1.9 mm 4 mps 759 mmHg 90%
    23:00 +10°C° 1.9 mm 4 mps 759 mmHg 92%

    16 December, Sunday

    Time Temperature Precipitation Wind Pressure Humidity
    00:00 +10°C° 1.9 mm 4 mps 759 mmHg 94%
    01:00 +10°C° 1.9 mm 4 mps 759 mmHg 96%
    02:00 +10°C° 1.1 mm 4 mps 759 mmHg 96%
    03:00 +10°C° 1.1 mm 3 mps 759 mmHg 96%
    04:00 +9°C° 1.1 mm 3 mps 759 mmHg 96%
    05:00 +9°C° 0.2 mm 3 mps 759 mmHg 96%
    06:00 +9°C° 0.2 mm 3 mps 760 mmHg 95%
    07:00 +9°C° 0.2 mm 3 mps 760 mmHg 95%
    08:00 +9°C° 0 mm 3 mps 760 mmHg 90%
    09:00 +10°C° 0 mm 3 mps 760 mmHg 85%
    10:00 +11°C° 0 mm 3 mps 761 mmHg 80%
    11:00 +11°C° 0 mm 3 mps 760 mmHg 77%
    12:00 +11°C° 0 mm 4 mps 760 mmHg 74%
    13:00 +11°C° 0 mm 4 mps 760 mmHg 72%
    14:00 +10°C° 0 mm 4 mps 760 mmHg 73%
    15:00 +10°C° 0 mm 3 mps 760 mmHg 75%
    16:00 +9°C° 0 mm 3 mps 761 mmHg 76%
    17:00 +8°C° 0 mm 3 mps 761 mmHg 78%
    18:00 +8°C° 0 mm 2 mps 762 mmHg 81%
    19:00 +7°C° 0 mm 2 mps 762 mmHg 83%
    20:00 +7°C° 0 mm 2 mps 762 mmHg 82%
    21:00 +7°C° 0 mm 2 mps 762 mmHg 81%
    22:00 +7°C° 0 mm 2 mps 762 mmHg 80%
    23:00 +7°C° 0 mm 2 mps 762 mmHg 79%

    17 December, Monday

    Time Temperature Precipitation Wind Pressure Humidity
    00:00 +7°C° 0 mm 2 mps 762 mmHg 78%
    01:00 +7°C° 0 mm 2 mps 762 mmHg 76%
    02:00 +7°C° 0 mm 2 mps 762 mmHg 77%
    03:00 +7°C° 0 mm 2 mps 762 mmHg 77%
    04:00 +7°C° 0 mm 2 mps 762 mmHg 77%
    05:00 +7°C° 0 mm 2 mps 762 mmHg 77%
    06:00 +7°C° 0 mm 2 mps 762 mmHg 77%
    07:00 +7°C° 0 mm 2 mps 762 mmHg 77%
    08:00 +8°C° 0 mm 2 mps 762 mmHg 71%
    09:00 +9°C° 0 mm 2 mps 762 mmHg 64%
    10:00 +12°C° 0 mm 1 mps 762 mmHg 58%
    11:00 +12°C° 0 mm 2 mps 762 mmHg 56%
    12:00 +13°C° 0 mm 2 mps 761 mmHg 54%
    13:00 +14°C° 0 mm 2 mps 761 mmHg 51%
    14:00 +13°C° 0.1 mm 2 mps 761 mmHg 57%
    15:00 +12°C° 0.1 mm 2 mps 761 mmHg 62%
    16:00 +12°C° 0.1 mm 1 mps 761 mmHg 68%
    17:00 +10°C° 0.2 mm 2 mps 761 mmHg 70%
    18:00 +10°C° 0.2 mm 2 mps 761 mmHg 72%
    19:00 +10°C° 0.2 mm 3 mps 761 mmHg 75%
    20:00 +9°C° 0.2 mm 3 mps 761 mmHg 76%
    21:00 +9°C° 0.2 mm 3 mps 761 mmHg 77%
    22:00 +9°C° 0.2 mm 2 mps 762 mmHg 78%
    23:00 +9°C° 0.2 mm 2 mps 761 mmHg 78%

    18 December, Tuesday

    Time Temperature Precipitation Wind Pressure Humidity
    00:00 +9°C° 0.2 mm 2 mps 761 mmHg 79%
    01:00 +9°C° 0.2 mm 2 mps 761 mmHg 80%
    02:00 +9°C° 0.1 mm 2 mps 761 mmHg 81%
    03:00 +9°C° 0.1 mm 2 mps 761 mmHg 81%
    04:00 +8°C° 0.1 mm 2 mps 760 mmHg 82%
    05:00 +8°C° 0.1 mm 3 mps 760 mmHg 82%
    06:00 +8°C° 0.1 mm 3 mps 760 mmHg 81%
    07:00 +7°C° 0.1 mm 4 mps 760 mmHg 81%
    08:00 +7°C° 0.1 mm 4 mps 761 mmHg 78%
    09:00 +8°C° 0.1 mm 4 mps 761 mmHg 75%
    10:00 +8°C° 0.1 mm 5 mps 762 mmHg 72%
    11:00 +9°C° 0 mm 5 mps 761 mmHg 68%
    12:00 +9°C° 0 mm 5 mps 761 mmHg 65%
    13:00 +9°C° 0 mm 5 mps 761 mmHg 61%
    14:00 +9°C° 0 mm 5 mps 762 mmHg 63%
    15:00 +8°C° 0 mm 5 mps 762 mmHg 66%
    16:00 +7°C° 0 mm 5 mps 763 mmHg 68%
    17:00 +6°C° 0 mm 5 mps 763 mmHg 70%
    18:00 +6°C° 0 mm 5 mps 764 mmHg 71%
    19:00 +5°C° 0 mm 5 mps 764 mmHg 73%
    20:00 +3°C° 0 mm 5 mps 765 mmHg 73%
    21:00 +4°C° 0 mm 4 mps 765 mmHg 73%
    22:00 +4°C° 0 mm 4 mps 766 mmHg 73%
    23:00 +3°C° 0 mm 4 mps 766 mmHg 73%
    Show more